NOAA 16 DEB

基本信息
目录编号:
42355
目录名称:
NOAA 16 DEB
国际标识:
2000-055QX
轨道中心:
EARTH
物体状态:
在轨
发射日期:
2000-09-21 UTC
轨道信息
数据来源: 国际轨道数据
星历时间: 2026-07-09T15:09:33+0800
半长轴: 7217.315km
偏心率: 0.0035918
轨道倾角: 98.682°
近地点辐角: 172.408°
升交点赤经: 215.339°
平近点角: 187.765°
近地点: 813.254km
远地点: 865.102km
周期: 101.701分钟
每日圈数: 14.159221
详细信息
发射场:
AFWTR
轨道高度:
LEO
数据来源:
AOE Integration Group
参考系:
TEME
时间系统:
UTC
历元类型:
SGP4
2D轨道图
3D轨道图
轨道高度分析图
轨道倾角分析图
轨道综合分析图
查看轨道综合分析图